Location: Unspecified
(40.9447°N, 78.9903°W)
Time: 02:53:57
(UTC-05:00)

Hubble Space Telescope - Visible Passes

Search period start: 22 January 2019 00:00
Search period end: 01 February 2019 00:00
Orbit: 537 x 540 km, 28.5° (Epoch: 21 January)

Date Brightness Start Highest point End Pass type
(mag) Time Alt. Az. Time Alt. Az. Time Alt. Az.
22 Jan 3.5 04:58:45 12° SSE 04:58:45 12° SSE 04:59:32 10° SE visible
22 Jan 3.3 06:36:15 10° SSW 06:37:42 12° S 06:39:09 10° S visible
23 Jan 3.7 04:48:54 10° SSE 04:48:54 10° SSE 04:48:59 10° SSE visible
23 Jan 3.3 06:26:28 10° SSW 06:27:06 10° SSW 06:27:44 10° S visible
